Aurora, IL

10:13 PM CDT on April 23, 2018 (GMT -0500)
Aurora Municipal

Weather History for KARR - April, 2014

Change the Weather History Date:

Sunday, April 6, 2014

  Actual Average Record
Temperature  
Mean Temperature 43 °F 45 °F  
Max Temperature 56 °F 56 °F 76 °F (2010)
Min Temperature 30 °F 34 °F 20 °F (2018)
Degree Days  
Heating Degree Days 22 20  
Month to date heating degree days 142 125  
Since 1 July heating degree days 6799 6133  
Cooling Degree Days 0 0  
Month to date cooling degree days 0 0  
Year to date cooling degree days 0 0  
Moisture  
Dew Point 30 °F    
Average Humidity 58    
Maximum Humidity 78    
Minimum Humidity 38    
Precipitation  
Precipitation 0.00 in 0.11 in 0.46 in (2001)
Month to date precipitation 0.82 0.60  
Year to date precipitation 3.39 5.92  
Sea Level Pressure  
Sea Level Pressure 30.07 in    
Wind  
Wind Speed 6 mph (SSE)    
Max Wind Speed 15 mph    
Max Gust Speed 18 mph    
Visibility 8 miles    
Events      
T = Trace of Precipitation, MM = Missing Value Source: NWS Daily Summary

Daily Weather History Graph

Daily Weather History Graph

Search for Another Location

Airport or City:

Astronomy

Apr. 06, 2014 Rise Set
Actual Time 6:28 AM CDT 7:24 PM CDT
Civil Twilight 6:00 AM CDT 7:53 PM CDT
Nautical Twilight 5:26 AM CDT 8:27 PM CDT
Astronomical Twilight 4:51 AM CDT 9:02 PM CDT
Moon 11:26 AM CDT (4/6) 1:23 AM CDT (4/6)
Length of Visible Light 13h 53m
Length of Day
12h 56m
Waxing Crescent, 44% of the Moon is Illuminated
Apr 6
Waxing Crescent
Apr 7
First Quarter
Apr 15
Full
Apr 22
Last Quarter
Apr 29
New

Hourly Weather History & Observations

Time (CDT) Temp. Windchill Dew Point Humidity Pressure Visibility Wind Dir Wind Speed Gust Speed Precip Events Conditions
12:52 AM 34.0 °F 29.8 °F 26.1 °F 73% 30.17 in 8.0 mi SE 4.6 mph - N/A   Clear
1:52 AM 32.0 °F 26.4 °F 25.0 °F 75% 30.16 in 7.0 mi SE 5.8 mph - N/A   Clear
2:52 AM 32.0 °F 25.6 °F 25.0 °F 75% 30.15 in 8.0 mi SSE 6.9 mph - N/A   Clear
3:52 AM 30.9 °F 26.2 °F 24.1 °F 76% 30.14 in 8.0 mi SE 4.6 mph - N/A   Clear
4:52 AM 30.9 °F 25.2 °F 23.0 °F 72% 30.15 in 8.0 mi SSE 5.8 mph - N/A   Clear
5:52 AM 30.9 °F 26.2 °F 23.0 °F 72% 30.15 in 9.0 mi SSE 4.6 mph - N/A   Clear
6:52 AM 33.1 °F 27.7 °F 25.0 °F 72% 30.17 in 7.0 mi South 5.8 mph - N/A   Clear
8:52 AM 42.1 °F 37.1 °F 30.9 °F 65% 30.17 in 7.0 mi South 8.1 mph - N/A   Clear
9:52 AM 46.9 °F - 33.1 °F 59% 30.16 in 7.0 mi South 11.5 mph - N/A   Clear
10:52 AM 50.0 °F - 32.0 °F 50% 30.14 in 9.0 mi SSE 12.7 mph - N/A   Clear
12:52 PM 50.0 °F - 30.9 °F 48% 30.09 in 8.0 mi South 6.9 mph - N/A   Clear
1:52 PM 52.0 °F - 33.1 °F 49% 30.05 in 8.0 mi South 9.2 mph - N/A   Clear
2:52 PM 54.0 °F - 30.9 °F 41% 30.01 in 9.0 mi SE 10.4 mph - N/A   Clear
3:52 PM 54.0 °F - 30.9 °F 41% 30.01 in 9.0 mi South 10.4 mph - N/A   Clear
4:52 PM 55.0 °F - 30.9 °F 40% 29.99 in 9.0 mi South 12.7 mph - N/A   Scattered Clouds
5:52 PM 54.0 °F - 32.0 °F 43% 29.99 in 10.0 mi South 9.2 mph - N/A   Partly Cloudy
6:52 PM 51.1 °F - 33.1 °F 50% 29.97 in 9.0 mi SE 5.8 mph - N/A   Scattered Clouds
7:52 PM 48.0 °F - 33.1 °F 56% 29.98 in 9.0 mi South 5.8 mph - N/A   Clear
8:52 PM 45.0 °F - 34.0 °F 65% 29.98 in 9.0 mi Calm Calm - N/A   Clear
9:52 PM 43.0 °F - 33.1 °F 68% 29.98 in 9.0 mi Calm Calm - N/A   Clear
10:52 PM 39.0 °F - 32.0 °F 76% 29.97 in 8.0 mi Calm Calm - N/A   Clear
11:52 PM 37.0 °F - 30.0 °F 76% 29.96 in 7.0 mi Calm Calm - N/A   Clear